NOAA 16 DEB, 41668

Orbit data source: Space-Track

NOAA 16 DEB, 41668 is space debris in SSO originally from a launch on Thu, 21 Sep 2000 UTC launched from the Air Force Western Test Range (AFWTR). Debris objects in space refer to the collection of defunct objects orbiting the Earth. Examples of debris include non-operational satellites, rocket bodies, and fragments generated from explosions, collisions, or faulty payload assembly.

Loading next visibility...
Identifier
41668, 2000-055PH
Orbit
SSO
Country
Flag of USUS
Related business
Manufacturer
Unknown
Mission
Spacecraft
Bus & Motor
Unknown
Mass
Unknown
Launch date (UTC)
2000-09-21 (25 years ago)
Launch vehicle
Unknown
Launch site
Air Force Western Test Range (AFWTR)
Object type
Payload
Rocket body
Debris
Shape & HBR
Unknown shape, 0.1 m
Radar Cross Section
Small (<0.1 m²)

Expand to show TLE details & history
Last TLE update: 4 days ago

TLE from 4 days ago
0 NOAA 16 DEB
1 41668U 00055PH  25284.28444820  .00015317  00000-0  30023-2 0  9995
2 41668  98.9507 122.1097 0029861 111.5918 248.8467 14.62567939495402
Epoch: 2025-10-11T06:49Z
TLE epoch observation values (Epoch: 2025-10-11T06:49:36.324Z)
Latitude
-0.00005°
Longitude
-0.40978°
Altitude
695.526 km
Speed
7.504 km/s
True Right ascension
08h 08m 26s
True Declination
0° 00' 00"
Sunlit
Object was in daylight at epoch
Visualization orbit readout
Latitude
Unknown
Longitude
Unknown
Altitude
Unknown
Speed
Unknown
Apparent Right ascension
Unknown
Apparent Declination
Unknown
Sunlit
N/A
Visualization observer readout
Local Sidereal Time
00:36:25
Azimuth
Unknown
Elevation
Unknown
Doppler factor
Unknown
Orbital elements
Apogee altitude
703.091 km
Perigee altitude
660.926 km
Semi-major axis
7,060.145 km
Eccentricity
0.00299
Inclination
98.9507°
RAAN
122.1097°
Arg. of periapsis
111.5918°
True anomaly
248.52801°
Mean anomaly
248.8467°
Eccentric anomaly
248.68731°
Mean motion
3.65867 °/min
Orbital period
98.4 mins
BSTAR
0.0030023
Loading maneuver chart data...
Computing Atmospheric mass density...
Loading historical data...
Loading historical data...
Loading historical data...
Loading historical data...
Loading historical data...
Loading historical data...
Loading historical data...

Documentation

Showing up to 5 results
|